Time,TemperatureF,DewpointF,PressureIn,WindDirection,WindDirectionDegrees,WindSpeedMPH,WindSpeedGustMPH,Humidity,HourlyPrecipIn,Conditions,Clouds,dailyrainin,SoftwareType,DateUTC
2013-08-07 00:01:00,64.7,61.7,30.13,South,172,0.0,0.0,90,0.00,CLR,,0.00,WeatherDisplay:10.37,2013-08-07 04:01:00,
2013-08-07 00:03:00,64.6,61.6,30.13,South,172,0.0,0.0,90,0.00,CLR,,0.00,WeatherDisplay:10.37,2013-08-07 04:03:00,
2013-08-07 00:08:00,64.6,61.6,30.13,South,172,0.0,0.0,90,0.00,CLR,,0.00,WeatherDisplay:10.37,2013-08-07 04:08:00,
2013-08-07 00:13:00,64.5,61.8,30.14,South,172,0.0,0.0,91,0.00,CLR,,0.00,WeatherDisplay:10.37,2013-08-07 04:13:00,
2013-08-07 00:19:00,64.4,61.7,30.14,South,172,0.0,0.0,91,0.00,CLR,,0.00,WeatherDisplay:10.37,2013-08-07 04:19:00,
2013-08-07 00:24:00,64.2,61.5,30.14,South,172,0.0,0.0,91,0.00,CLR,,0.00,WeatherDisplay:10.37,2013-08-07 04:24:00,
2013-08-07 00:29:00,64.1,61.4,30.13,South,172,0.0,0.0,91,0.00,CLR,,0.00,WeatherDisplay:10.37,2013-08-07 04:29:00,
2013-08-07 00:34:00,64.1,61.4,30.14,South,172,0.0,0.0,91,0.00,CLR,,0.00,WeatherDisplay:10.37,2013-08-07 04:34:00,
2013-08-07 00:39:00,64.0,61.6,30.13,South,172,0.0,0.0,92,0.00,CLR,,0.00,WeatherDisplay:10.37,2013-08-07 04:39:00,
2013-08-07 00:45:00,64.0,61.6,30.13,South,172,0.0,0.0,92,0.00,CLR,,0.00,WeatherDisplay:10.37,2013-08-07 04:45:00,
2013-08-07 00:50:00,63.8,61.4,30.13,South,172,0.0,0.0,92,0.00,CLR,,0.00,WeatherDisplay:10.37,2013-08-07 04:50:00,
2013-08-07 00:55:00,63.7,61.3,30.14,South,172,0.0,0.0,92,0.00,CLR,,0.00,WeatherDisplay:10.37,2013-08-07 04:55:00,
2013-08-07 01:00:00,63.6,61.2,30.14,South,172,0.0,0.0,92,0.00,CLR,,0.00,WeatherDisplay:10.37,2013-08-07 05:00:00,
2013-08-07 01:06:00,63.4,61.0,30.14,South,172,0.0,0.0,92,0.00,CLR,,0.00,WeatherDisplay:10.37,2013-08-07 05:06:00,
2013-08-07 01:11:00,63.2,60.8,30.14,South,172,0.0,0.0,92,0.00,CLR,,0.00,WeatherDisplay:10.37,2013-08-07 05:11:00,
2013-08-07 01:16:00,63.1,60.7,30.14,South,172,0.0,0.0,92,0.00,CLR,,0.00,WeatherDisplay:10.37,2013-08-07 05:16:00,
2013-08-07 01:21:00,63.0,60.9,30.14,South,172,0.0,0.0,93,0.00,CLR,,0.00,WeatherDisplay:10.37,2013-08-07 05:21:00,
2013-08-07 01:26:00,63.1,61.0,30.14,South,172,0.0,0.0,93,0.00,CLR,,0.00,WeatherDisplay:10.37,2013-08-07 05:26:00,
2013-08-07 01:31:00,63.0,60.9,30.14,South,172,0.0,0.0,93,0.00,CLR,,0.00,WeatherDisplay:10.37,2013-08-07 05:31:00,
2013-08-07 01:37:00,62.8,60.7,30.14,South,172,0.0,0.0,93,0.00,CLR,,0.00,WeatherDisplay:10.37,2013-08-07 05:37:00,
2013-08-07 01:42:00,62.6,60.5,30.15,South,172,0.0,0.0,93,0.00,CLR,,0.00,WeatherDisplay:10.37,2013-08-07 05:42:00,
2013-08-07 01:47:00,62.5,60.4,30.15,South,172,0.0,0.0,93,0.00,CLR,,0.00,WeatherDisplay:10.37,2013-08-07 05:47:00,
2013-08-07 01:52:00,62.3,60.2,30.15,South,172,0.0,0.0,93,0.00,CLR,,0.00,WeatherDisplay:10.37,2013-08-07 05:52:00,
2013-08-07 01:57:00,62.2,60.2,30.15,South,172,0.0,0.0,93,0.00,CLR,,0.00,WeatherDisplay:10.37,2013-08-07 05:57:00,
2013-08-07 02:02:00,62.3,60.2,30.15,South,172,0.0,0.0,93,0.00,CLR,,0.00,WeatherDisplay:10.37,2013-08-07 06:02:00,
2013-08-07 02:08:00,62.3,60.2,30.15,South,172,0.0,0.0,93,0.00,CLR,,0.00,WeatherDisplay:10.37,2013-08-07 06:08:00,
2013-08-07 02:13:00,62.5,60.7,30.15,South,172,0.0,0.0,94,0.00,CLR,,0.00,WeatherDisplay:10.37,2013-08-07 06:13:00,
2013-08-07 02:18:00,62.6,61.4,30.14,South,172,4.0,4.0,96,0.00,CLR,,0.00,WeatherDisplay:10.37,2013-08-07 06:18:00,
2013-08-07 02:23:00,62.5,60.7,30.14,South,172,2.3,2.3,94,0.00,CLR,,0.00,WeatherDisplay:10.37,2013-08-07 06:23:00,
2013-08-07 02:29:00,62.6,60.8,30.14,South,172,0.0,0.0,94,0.00,CLR,,0.00,WeatherDisplay:10.37,2013-08-07 06:29:00,
2013-08-07 02:34:00,62.6,60.8,30.15,South,172,1.1,1.1,94,0.00,CLR,,0.00,WeatherDisplay:10.37,2013-08-07 06:34:00,
2013-08-07 02:39:00,62.4,60.7,30.15,South,172,1.1,1.1,94,0.00,CLR,,0.00,WeatherDisplay:10.37,2013-08-07 06:39:00,
2013-08-07 02:44:00,62.2,60.5,30.15,South,172,2.3,2.3,94,0.00,CLR,,0.00,WeatherDisplay:10.37,2013-08-07 06:44:00,
2013-08-07 02:49:00,62.2,60.5,30.15,South,172,0.0,0.0,94,0.00,CLR,,0.00,WeatherDisplay:10.37,2013-08-07 06:49:00,
2013-08-07 02:55:00,62.2,60.5,30.15,South,172,0.0,0.0,94,0.00,CLR,,0.00,WeatherDisplay:10.37,2013-08-07 06:55:00,
2013-08-07 03:00:00,62.0,60.3,30.15,South,172,0.0,1.0,94,0.00,CLR,,0.00,WeatherDisplay:10.37,2013-08-07 07:00:00,
2013-08-07 03:05:00,62.0,60.3,30.15,South,172,1.1,0.0,94,0.00,CLR,,0.00,WeatherDisplay:10.37,2013-08-07 07:05:00,
2013-08-07 03:10:00,61.8,60.1,30.15,South,172,0.0,0.0,94,0.00,CLR,,0.00,WeatherDisplay:10.37,2013-08-07 07:10:00,
2013-08-07 03:15:00,61.5,59.8,30.15,South,172,1.1,1.1,94,0.00,CLR,,0.00,WeatherDisplay:10.37,2013-08-07 07:15:00,
2013-08-07 03:20:00,61.4,59.7,30.15,South,172,2.3,2.3,94,0.00,CLR,,0.00,WeatherDisplay:10.37,2013-08-07 07:20:00,
2013-08-07 03:26:00,61.4,59.7,30.15,South,172,5.8,5.8,94,0.00,CLR,,0.00,WeatherDisplay:10.37,2013-08-07 07:26:00,
2013-08-07 03:31:00,61.6,60.2,30.16,South,172,2.3,2.3,95,0.00,CLR,,0.00,WeatherDisplay:10.37,2013-08-07 07:31:00,
2013-08-07 03:36:00,61.3,59.6,30.16,South,172,0.0,0.0,94,0.00,CLR,,0.00,WeatherDisplay:10.37,2013-08-07 07:36:00,
2013-08-07 03:41:00,61.4,60.0,30.15,South,172,4.6,4.6,95,0.00,CLR,,0.00,WeatherDisplay:10.37,2013-08-07 07:41:00,
2013-08-07 03:46:00,61.5,60.1,30.16,South,172,5.0,5.0,95,0.00,CLR,,0.00,WeatherDisplay:10.37,2013-08-07 07:46:00,
2013-08-07 03:52:00,61.5,60.1,30.16,South,172,5.8,5.8,95,0.00,CLR,,0.00,WeatherDisplay:10.37,2013-08-07 07:52:00,
2013-08-07 03:57:00,61.5,60.1,30.16,South,172,5.8,5.8,95,0.00,CLR,,0.00,WeatherDisplay:10.37,2013-08-07 07:57:00,
2013-08-07 04:02:00,61.4,60.0,30.16,South,172,3.5,3.5,95,0.00,CLR,,0.00,WeatherDisplay:10.37,2013-08-07 08:02:00,
2013-08-07 04:07:00,61.4,60.0,30.16,South,172,3.5,3.5,95,0.00,CLR,,0.00,WeatherDisplay:10.37,2013-08-07 08:07:00,
2013-08-07 04:12:00,61.1,59.7,30.16,South,172,2.3,2.3,95,0.00,CLR,,0.00,WeatherDisplay:10.37,2013-08-07 08:12:00,
2013-08-07 04:18:00,60.9,59.5,30.16,South,172,1.1,1.1,95,0.00,CLR,,0.00,WeatherDisplay:10.37,2013-08-07 08:18:00,
2013-08-07 04:23:00,60.9,59.5,30.15,South,172,1.1,1.1,95,0.00,CLR,,0.00,WeatherDisplay:10.37,2013-08-07 08:23:00,
2013-08-07 04:28:00,60.7,59.3,30.15,South,172,1.1,0.0,95,0.00,CLR,,0.00,WeatherDisplay:10.37,2013-08-07 08:28:00,
2013-08-07 04:33:00,60.7,59.3,30.15,South,172,1.1,0.0,95,0.00,CLR,,0.00,WeatherDisplay:10.37,2013-08-07 08:33:00,
2013-08-07 04:38:00,60.5,59.1,30.16,South,172,0.0,0.0,95,0.00,CLR,,0.00,WeatherDisplay:10.37,2013-08-07 08:38:00,
2013-08-07 04:43:00,60.4,59.0,30.15,South,172,1.1,1.1,95,0.00,CLR,,0.00,WeatherDisplay:10.37,2013-08-07 08:43:00,
2013-08-07 04:49:00,60.3,58.9,30.15,South,172,1.1,1.1,95,0.00,CLR,,0.00,WeatherDisplay:10.37,2013-08-07 08:49:00,
2013-08-07 04:54:00,60.2,58.8,30.16,South,172,1.1,1.1,95,0.00,CLR,,0.00,WeatherDisplay:10.37,2013-08-07 08:54:00,
2013-08-07 04:59:00,60.1,58.7,30.16,South,172,1.1,0.0,95,0.00,CLR,,0.00,WeatherDisplay:10.37,2013-08-07 08:59:00,
2013-08-07 05:04:00,60.2,58.8,30.15,South,172,0.0,0.1,95,0.00,CLR,,0.00,WeatherDisplay:10.37,2013-08-07 09:04:00,
2013-08-07 05:10:00,60.2,58.8,30.15,South,172,3.5,3.5,95,0.00,CLR,,0.00,WeatherDisplay:10.37,2013-08-07 09:10:00,
2013-08-07 05:15:00,60.3,58.9,30.15,South,172,4.6,4.6,95,0.00,CLR,,0.00,WeatherDisplay:10.37,2013-08-07 09:15:00,
2013-08-07 05:20:00,60.5,59.4,30.15,South,172,3.5,3.5,96,0.00,CLR,,0.00,WeatherDisplay:10.37,2013-08-07 09:20:00,
2013-08-07 05:25:00,60.5,59.4,30.15,South,172,1.1,1.1,96,0.00,CLR,,0.00,WeatherDisplay:10.37,2013-08-07 09:25:00,
2013-08-07 05:30:00,60.5,59.4,30.15,South,172,2.0,2.0,96,0.00,CLR,,0.00,WeatherDisplay:10.37,2013-08-07 09:30:00,
2013-08-07 05:36:00,60.4,59.3,30.15,South,172,4.6,4.6,96,0.00,CLR,,0.00,WeatherDisplay:10.37,2013-08-07 09:36:00,
2013-08-07 05:41:00,60.4,59.3,30.15,South,172,5.0,5.0,96,0.00,CLR,,0.00,WeatherDisplay:10.37,2013-08-07 09:41:00,
2013-08-07 05:46:00,60.4,59.3,30.15,South,172,2.3,2.3,96,0.00,CLR,,0.00,WeatherDisplay:10.37,2013-08-07 09:46:00,
2013-08-07 05:51:00,60.3,58.9,30.15,South,172,2.3,2.3,95,0.00,CLR,,0.00,WeatherDisplay:10.37,2013-08-07 09:51:00,
2013-08-07 05:56:00,60.2,59.1,30.15,South,172,3.5,3.5,96,0.00,CLR,,0.00,WeatherDisplay:10.37,2013-08-07 09:56:00,
2013-08-07 06:01:00,60.1,59.0,30.15,South,172,2.0,2.0,96,0.00,BKN,,0.00,WeatherDisplay:10.37,2013-08-07 10:01:00,
2013-08-07 06:06:00,59.9,58.8,30.16,South,172,3.5,3.5,96,0.00,BKN,,0.00,WeatherDisplay:10.37,2013-08-07 10:06:00,
2013-08-07 06:12:00,59.6,58.5,30.16,South,172,4.6,4.6,96,0.00,BKN,,0.00,WeatherDisplay:10.37,2013-08-07 10:12:00,
2013-08-07 06:17:00,59.2,58.1,30.16,South,172,4.6,4.6,96,0.00,BKN,,0.00,WeatherDisplay:10.37,2013-08-07 10:17:00,
2013-08-07 06:22:00,59.1,58.0,30.16,South,172,2.3,2.3,96,0.00,BKN,,0.00,WeatherDisplay:10.37,2013-08-07 10:22:00,
2013-08-07 06:27:00,59.2,58.1,30.16,South,172,2.3,2.3,96,0.00,BKN,,0.00,WeatherDisplay:10.37,2013-08-07 10:27:00,
2013-08-07 06:32:00,59.5,58.4,30.17,South,172,2.0,2.0,96,0.00,BKN,,0.00,WeatherDisplay:10.37,2013-08-07 10:32:00,
2013-08-07 06:37:00,59.5,58.4,30.17,South,172,2.3,2.3,96,0.00,BKN,,0.00,WeatherDisplay:10.37,2013-08-07 10:37:00,
2013-08-07 06:43:00,59.7,58.6,30.17,South,172,3.5,3.5,96,0.00,BKN,,0.00,WeatherDisplay:10.37,2013-08-07 10:43:00,
2013-08-07 06:48:00,59.8,58.7,30.17,South,172,3.5,3.5,96,0.00,BKN,,0.00,WeatherDisplay:10.37,2013-08-07 10:48:00,
2013-08-07 06:53:00,59.9,58.8,30.17,South,172,1.1,1.1,96,0.00,BKN,,0.00,WeatherDisplay:10.37,2013-08-07 10:53:00,
2013-08-07 06:58:00,60.0,58.9,30.17,South,172,1.1,1.1,96,0.00,BKN,,0.00,WeatherDisplay:10.37,2013-08-07 10:58:00,
2013-08-07 07:03:00,59.9,58.8,30.17,South,172,0.0,0.0,96,0.00,BKN,,0.00,WeatherDisplay:10.37,2013-08-07 11:03:00,
2013-08-07 07:09:00,60.4,59.3,30.17,South,173,4.6,4.6,96,0.00,BKN,,0.00,WeatherDisplay:10.37,2013-08-07 11:09:00,
2013-08-07 07:14:00,60.8,59.7,30.17,South,173,4.0,4.0,96,0.00,BKN,,0.00,WeatherDisplay:10.37,2013-08-07 11:14:00,
2013-08-07 07:19:00,60.9,59.8,30.17,South,178,4.6,4.6,96,0.00,BKN,,0.00,WeatherDisplay:10.37,2013-08-07 11:19:00,
2013-08-07 07:24:00,60.9,59.8,30.17,South,180,3.5,3.5,96,0.00,BKN,,0.00,WeatherDisplay:10.37,2013-08-07 11:24:00,
2013-08-07 07:29:00,61.1,60.0,30.17,South,188,4.0,4.0,96,0.00,BKN,,0.00,WeatherDisplay:10.37,2013-08-07 11:29:00,
2013-08-07 07:35:00,61.3,60.2,30.17,NNW,332,5.0,5.0,96,0.00,BKN,,0.00,WeatherDisplay:10.37,2013-08-07 11:35:00,
2013-08-07 07:40:00,61.3,60.2,30.17,NNW,338,3.5,3.5,96,0.00,BKN,,0.00,WeatherDisplay:10.37,2013-08-07 11:40:00,
2013-08-07 07:45:00,61.4,60.2,30.17,NNW,338,4.0,4.0,96,0.00,BKN,,0.00,WeatherDisplay:10.37,2013-08-07 11:45:00,
2013-08-07 07:50:00,61.5,60.3,30.17,NNW,338,3.5,3.5,96,0.00,BKN,,0.00,WeatherDisplay:10.37,2013-08-07 11:50:00,
2013-08-07 07:55:00,61.8,60.9,30.17,NNW,338,4.0,4.0,97,0.00,BKN,,0.00,WeatherDisplay:10.37,2013-08-07 11:55:00,
2013-08-07 08:00:00,62.0,61.1,30.17,NNW,338,4.0,4.0,97,0.00,BKN,,0.00,WeatherDisplay:10.37,2013-08-07 12:00:00,
2013-08-07 08:06:00,62.3,61.4,30.17,NNW,338,3.5,3.5,97,0.00,BKN,,0.00,WeatherDisplay:10.37,2013-08-07 12:06:00,
2013-08-07 08:11:00,62.6,61.7,30.17,NNW,338,3.5,3.5,97,0.00,BKN,,0.00,WeatherDisplay:10.37,2013-08-07 12:11:00,
2013-08-07 08:16:00,62.9,62.0,30.17,NNW,338,3.5,3.5,97,0.00,BKN,,0.00,WeatherDisplay:10.37,2013-08-07 12:16:00,
2013-08-07 08:21:00,63.2,62.3,30.17,NNW,338,1.1,0.0,97,0.00,BKN,,0.00,WeatherDisplay:10.37,2013-08-07 12:21:00,
2013-08-07 08:26:00,63.8,62.9,30.17,NNW,338,0.0,0.0,97,0.00,BKN,,0.00,WeatherDisplay:10.37,2013-08-07 12:26:00,
2013-08-07 08:31:00,64.3,63.4,30.17,NNW,338,0.0,0.0,97,0.00,BKN,,0.00,WeatherDisplay:10.37,2013-08-07 12:31:00,
2013-08-07 08:36:00,65.0,64.1,30.17,NNW,338,0.0,0.0,97,0.00,BKN,,0.00,WeatherDisplay:10.37,2013-08-07 12:36:00,
2013-08-07 08:42:00,65.5,64.6,30.17,NNW,338,2.0,2.0,97,0.00,BKN,,0.00,WeatherDisplay:10.37,2013-08-07 12:42:00,
2013-08-07 08:47:00,65.9,65.0,30.16,NNW,338,1.1,0.0,97,0.00,BKN,,0.00,WeatherDisplay:10.37,2013-08-07 12:47:00,
2013-08-07 08:52:00,66.2,65.0,30.16,NNW,338,0.0,0.0,96,0.00,BKN,,0.00,WeatherDisplay:10.37,2013-08-07 12:52:00,
2013-08-07 08:57:00,66.7,65.5,30.16,NNW,338,0.0,0.0,96,0.00,BKN,,0.00,WeatherDisplay:10.37,2013-08-07 12:57:00,
2013-08-07 09:02:00,67.4,66.2,30.16,NNW,338,0.0,0.0,96,0.00,BKN,,0.00,WeatherDisplay:10.37,2013-08-07 13:02:00,
2013-08-07 09:07:00,68.1,66.6,30.16,NNW,338,1.1,0.0,95,0.00,BKN,,0.00,WeatherDisplay:10.37,2013-08-07 13:07:00,
2013-08-07 09:12:00,69.0,67.2,30.16,NNW,338,0.0,0.0,94,0.00,BKN,,0.00,WeatherDisplay:10.37,2013-08-07 13:12:00,
2013-08-07 09:18:00,69.6,67.2,30.16,NNW,338,2.3,2.3,92,0.00,BKN,,0.00,WeatherDisplay:10.37,2013-08-07 13:18:00,
2013-08-07 09:23:00,69.9,66.2,30.16,East,91,6.9,6.9,88,0.00,BKN,,0.00,WeatherDisplay:10.37,2013-08-07 13:23:00,
2013-08-07 09:28:00,70.0,65.3,30.15,SE,136,11.5,11.5,85,0.00,BKN,,0.00,WeatherDisplay:10.37,2013-08-07 13:28:00,
2013-08-07 09:33:00,70.1,64.0,30.15,SE,134,11.5,11.5,81,0.00,BKN,,0.00,WeatherDisplay:10.37,2013-08-07 13:33:00,
2013-08-07 09:38:00,70.3,63.8,30.15,ESE,123,11.5,11.5,80,0.00,BKN,,0.00,WeatherDisplay:10.37,2013-08-07 13:38:00,
2013-08-07 09:43:00,70.6,63.8,30.15,SE,130,8.1,8.2,79,0.00,BKN,,0.00,WeatherDisplay:10.37,2013-08-07 13:43:00,
2013-08-07 09:49:00,70.7,63.5,30.16,ESE,109,8.1,8.1,78,0.00,BKN,,0.00,WeatherDisplay:10.37,2013-08-07 13:49:00,
2013-08-07 09:54:00,70.9,63.0,30.16,SE,144,11.5,11.5,76,0.00,BKN,,0.00,WeatherDisplay:10.37,2013-08-07 13:54:00,
2013-08-07 09:59:00,71.0,63.4,30.15,ESE,115,12.0,12.0,77,0.00,BKN,,0.00,WeatherDisplay:10.37,2013-08-07 13:59:00,
2013-08-07 10:04:00,71.1,62.8,30.16,SE,142,11.5,11.5,75,0.00,BKN,,0.00,WeatherDisplay:10.37,2013-08-07 14:04:00,
2013-08-07 10:09:00,71.2,62.5,30.16,SSE,165,12.7,12.7,74,0.00,BKN,,0.00,WeatherDisplay:10.37,2013-08-07 14:09:00,
2013-08-07 10:14:00,71.4,62.3,30.15,ESE,121,9.2,9.2,73,0.00,BKN,,0.00,WeatherDisplay:10.37,2013-08-07 14:14:00,
2013-08-07 10:19:00,71.3,62.2,30.16,ESE,111,12.7,12.7,73,0.00,BKN,,0.00,WeatherDisplay:10.37,2013-08-07 14:19:00,
2013-08-07 10:20:00,71.3,62.2,30.16,ESE,107,11.5,11.5,73,0.00,BKN,,0.00,WeatherDisplay:10.37,2013-08-07 14:20:00,
2013-08-07 10:25:00,71.2,62.9,30.16,ESE,115,11.5,11.5,75,0.00,BKN,,0.00,WeatherDisplay:10.37,2013-08-07 14:25:00,
2013-08-07 10:30:00,71.4,62.3,30.16,South,171,9.2,9.2,73,0.00,BKN,,0.00,WeatherDisplay:10.37,2013-08-07 14:30:00,
2013-08-07 10:35:00,71.5,61.2,30.16,ESE,122,11.5,11.5,70,0.00,BKN,,0.00,WeatherDisplay:10.37,2013-08-07 14:35:00,
2013-08-07 10:40:00,71.6,62.9,30.16,ESE,109,12.7,12.7,74,0.00,BKN,,0.00,WeatherDisplay:10.37,2013-08-07 14:40:00,
2013-08-07 10:45:00,71.5,60.8,30.16,SSE,157,11.5,11.5,69,0.00,BKN,,0.00,WeatherDisplay:10.37,2013-08-07 14:45:00,
2013-08-07 10:51:00,71.6,61.7,30.16,SE,142,13.8,13.8,71,0.00,BKN,,0.00,WeatherDisplay:10.37,2013-08-07 14:51:00,
2013-08-07 10:56:00,71.7,62.2,30.16,SE,132,13.0,13.0,72,0.00,BKN,,0.00,WeatherDisplay:10.37,2013-08-07 14:56:00,
2013-08-07 11:01:00,71.6,61.7,30.15,ESE,109,15.0,15.0,71,0.00,BKN,,0.00,WeatherDisplay:10.37,2013-08-07 15:01:00,
2013-08-07 11:06:00,71.7,61.0,30.16,SE,131,15.0,15.0,69,0.00,BKN,,0.00,WeatherDisplay:10.37,2013-08-07 15:06:00,
2013-08-07 11:11:00,71.7,61.8,30.16,ESE,109,13.8,13.8,71,0.00,BKN,,0.00,WeatherDisplay:10.37,2013-08-07 15:11:00,
2013-08-07 11:16:00,71.7,63.0,30.16,ESE,117,11.5,11.5,74,0.00,BKN,,0.00,WeatherDisplay:10.37,2013-08-07 15:16:00,
2013-08-07 11:22:00,71.6,61.7,30.16,SE,139,9.2,10.2,71,0.00,BKN,,0.00,WeatherDisplay:10.37,2013-08-07 15:22:00,
2013-08-07 11:27:00,71.6,62.5,30.16,ESE,123,12.0,12.0,73,0.00,BKN,,0.00,WeatherDisplay:10.37,2013-08-07 15:27:00,
2013-08-07 11:32:00,71.7,61.4,30.16,SSE,156,11.5,11.5,70,0.00,BKN,,0.00,WeatherDisplay:10.37,2013-08-07 15:32:00,
2013-08-07 11:37:00,71.8,61.9,30.16,SSE,152,11.5,11.5,71,0.00,BKN,,0.00,WeatherDisplay:10.37,2013-08-07 15:37:00,
2013-08-07 11:42:00,71.8,60.7,30.15,SE,144,12.0,12.0,68,0.00,BKN,,0.00,WeatherDisplay:10.37,2013-08-07 15:42:00,
2013-08-07 11:47:00,72.0,60.4,30.16,SE,140,9.2,9.8,67,0.00,BKN,,0.00,WeatherDisplay:10.37,2013-08-07 15:47:00,
2013-08-07 11:53:00,72.1,60.5,30.16,ESE,114,12.0,12.0,67,0.00,BKN,,0.00,WeatherDisplay:10.37,2013-08-07 15:53:00,
2013-08-07 11:58:00,72.1,59.2,30.16,ESE,105,9.2,9.2,64,0.00,BKN,,0.00,WeatherDisplay:10.37,2013-08-07 15:58:00,
2013-08-07 12:03:00,72.2,61.0,30.16,ESE,123,12.0,12.0,68,0.00,BKN,,0.00,WeatherDisplay:10.37,2013-08-07 16:03:00,
2013-08-07 12:08:00,72.3,61.1,30.16,SE,144,8.0,8.0,68,0.00,BKN,,0.00,WeatherDisplay:10.37,2013-08-07 16:08:00,
2013-08-07 12:13:00,72.4,60.8,30.16,SE,144,13.8,13.8,67,0.00,BKN,,0.00,WeatherDisplay:10.37,2013-08-07 16:13:00,
2013-08-07 12:18:00,72.4,61.7,30.16,SSE,150,11.5,11.5,69,0.00,BKN,,0.00,WeatherDisplay:10.37,2013-08-07 16:18:00,
2013-08-07 12:23:00,72.6,61.8,30.16,SSE,161,11.5,11.5,69,0.00,BKN,,0.00,WeatherDisplay:10.37,2013-08-07 16:23:00,
2013-08-07 12:28:00,72.4,61.7,30.16,East,99,12.7,12.7,69,0.00,BKN,,0.00,WeatherDisplay:10.37,2013-08-07 16:28:00,
2013-08-07 12:34:00,72.4,62.1,30.16,SE,128,9.2,9.2,70,0.00,BKN,,0.00,WeatherDisplay:10.37,2013-08-07 16:34:00,
2013-08-07 12:39:00,72.6,62.3,30.16,ESE,122,11.5,11.5,70,0.00,BKN,,0.00,WeatherDisplay:10.37,2013-08-07 16:39:00,
2013-08-07 12:44:00,72.2,61.5,30.16,SSE,163,10.4,10.4,69,0.00,BKN,,0.00,WeatherDisplay:10.37,2013-08-07 16:44:00,
2013-08-07 12:49:00,72.2,61.9,30.16,SE,132,15.0,15.0,70,0.00,BKN,,0.00,WeatherDisplay:10.37,2013-08-07 16:49:00,
2013-08-07 12:54:00,72.4,63.3,30.16,SE,126,14.0,14.0,73,0.00,BKN,,0.00,WeatherDisplay:10.37,2013-08-07 16:54:00,
2013-08-07 12:59:00,72.6,62.7,30.16,SE,130,11.5,11.5,71,0.00,BKN,,0.00,WeatherDisplay:10.37,2013-08-07 16:59:00,
2013-08-07 13:05:00,72.7,63.1,30.16,ESE,113,13.8,13.8,72,0.00,SCT,,0.00,WeatherDisplay:10.37,2013-08-07 17:05:00,
2013-08-07 13:10:00,72.8,62.8,30.16,ESE,111,16.1,16.1,71,0.00,SCT,,0.00,WeatherDisplay:10.37,2013-08-07 17:10:00,
2013-08-07 13:15:00,72.7,62.3,30.16,SSE,148,15.0,15.0,70,0.00,SCT,,0.00,WeatherDisplay:10.37,2013-08-07 17:15:00,
2013-08-07 13:20:00,73.0,63.4,30.16,ESE,121,12.7,12.7,72,0.00,SCT,,0.00,WeatherDisplay:10.37,2013-08-07 17:20:00,
2013-08-07 13:25:00,72.9,62.9,30.16,SSE,158,12.0,12.0,71,0.00,SCT,,0.00,WeatherDisplay:10.37,2013-08-07 17:25:00,
2013-08-07 13:30:00,72.7,62.3,30.16,SE,133,11.5,11.5,70,0.00,SCT,,0.00,WeatherDisplay:10.37,2013-08-07 17:30:00,
2013-08-07 13:35:00,72.7,62.3,30.16,ESE,115,13.8,13.8,70,0.00,SCT,,0.00,WeatherDisplay:10.37,2013-08-07 17:35:00,
2013-08-07 13:40:00,72.6,61.8,30.16,ESE,119,16.1,16.1,69,0.00,SCT,,0.00,WeatherDisplay:10.37,2013-08-07 17:40:00,
2013-08-07 13:45:00,72.7,62.3,30.16,SE,143,14.0,14.0,70,0.00,SCT,,0.00,WeatherDisplay:10.37,2013-08-07 17:45:00,
2013-08-07 13:50:00,72.8,62.4,30.16,ESE,123,12.7,13.1,70,0.00,SCT,,0.00,WeatherDisplay:10.37,2013-08-07 17:50:00,
2013-08-07 13:56:00,72.9,61.7,30.16,ESE,121,19.6,19.6,68,0.00,SCT,,0.00,WeatherDisplay:10.37,2013-08-07 17:56:00,
2013-08-07 14:01:00,72.8,61.6,30.16,ESE,116,17.0,17.0,68,0.00,BKN,,0.00,WeatherDisplay:10.37,2013-08-07 18:01:00,
2013-08-07 14:06:00,72.8,62.4,30.16,SE,124,15.0,15.0,70,0.00,BKN,,0.00,WeatherDisplay:10.37,2013-08-07 18:06:00,
2013-08-07 14:11:00,72.8,61.2,30.16,ESE,119,13.8,13.8,67,0.00,BKN,,0.00,WeatherDisplay:10.37,2013-08-07 18:11:00,
2013-08-07 14:16:00,72.9,61.7,30.16,ESE,113,11.5,11.5,68,0.00,BKN,,0.00,WeatherDisplay:10.37,2013-08-07 18:16:00,
2013-08-07 14:21:00,73.0,62.6,30.16,SE,130,9.2,9.2,70,0.00,BKN,,0.00,WeatherDisplay:10.37,2013-08-07 18:21:00,
2013-08-07 14:26:00,73.2,62.0,30.16,ESE,116,13.8,13.8,68,0.00,BKN,,0.00,WeatherDisplay:10.37,2013-08-07 18:26:00,
2013-08-07 14:32:00,73.1,61.5,30.16,ESE,103,13.8,13.8,67,0.00,BKN,,0.00,WeatherDisplay:10.37,2013-08-07 18:32:00,
2013-08-07 14:37:00,73.2,62.4,30.16,ESE,111,13.8,13.8,69,0.00,BKN,,0.00,WeatherDisplay:10.37,2013-08-07 18:37:00,
2013-08-07 14:42:00,73.3,62.9,30.15,ESE,115,18.4,18.4,70,0.00,BKN,,0.00,WeatherDisplay:10.37,2013-08-07 18:42:00,
2013-08-07 14:47:00,73.2,62.8,30.15,ESE,120,16.1,16.1,70,0.00,BKN,,0.00,WeatherDisplay:10.37,2013-08-07 18:47:00,
2013-08-07 14:52:00,73.1,62.3,30.15,ESE,105,13.8,13.8,69,0.00,BKN,,0.00,WeatherDisplay:10.37,2013-08-07 18:52:00,
2013-08-07 14:57:00,73.0,62.6,30.14,ESE,114,13.8,13.8,70,0.00,BKN,,0.00,WeatherDisplay:10.37,2013-08-07 18:57:00,
2013-08-07 15:03:00,73.0,62.6,30.14,SE,133,13.8,13.8,70,0.00,BKN,,0.00,WeatherDisplay:10.37,2013-08-07 19:03:00,
2013-08-07 15:08:00,73.1,62.7,30.14,ESE,115,12.7,12.7,70,0.00,BKN,,0.00,WeatherDisplay:10.37,2013-08-07 19:08:00,
2013-08-07 15:13:00,73.1,62.7,30.14,ESE,119,13.8,13.8,70,0.00,BKN,,0.00,WeatherDisplay:10.37,2013-08-07 19:13:00,
2013-08-07 15:18:00,73.1,63.1,30.14,SE,126,11.5,11.5,71,0.00,BKN,,0.00,WeatherDisplay:10.37,2013-08-07 19:18:00,
2013-08-07 15:23:00,73.1,62.7,30.14,ESE,103,15.0,15.0,70,0.00,BKN,,0.00,WeatherDisplay:10.37,2013-08-07 19:23:00,
2013-08-07 15:29:00,73.0,63.4,30.14,ESE,115,12.7,12.7,72,0.00,BKN,,0.00,WeatherDisplay:10.37,2013-08-07 19:29:00,
2013-08-07 15:34:00,73.1,63.5,30.14,ESE,103,16.1,16.1,72,0.00,BKN,,0.00,WeatherDisplay:10.37,2013-08-07 19:34:00,
2013-08-07 15:39:00,73.0,63.0,30.14,SE,132,17.3,17.3,71,0.00,BKN,,0.00,WeatherDisplay:10.37,2013-08-07 19:39:00,
2013-08-07 15:44:00,72.9,63.3,30.14,East,96,16.1,16.1,72,0.00,BKN,,0.00,WeatherDisplay:10.37,2013-08-07 19:44:00,
2013-08-07 15:49:00,72.9,63.7,30.14,SE,133,11.5,11.5,73,0.00,BKN,,0.00,WeatherDisplay:10.37,2013-08-07 19:49:00,
2013-08-07 15:54:00,73.0,63.4,30.14,SE,136,16.1,16.1,72,0.00,BKN,,0.00,WeatherDisplay:10.37,2013-08-07 19:54:00,
2013-08-07 15:59:00,72.9,63.3,30.13,SE,126,17.0,17.0,72,0.00,BKN,,0.00,WeatherDisplay:10.37,2013-08-07 19:59:00,
2013-08-07 16:04:00,72.7,63.1,30.13,SE,143,16.1,16.1,72,0.00,BKN,,0.00,WeatherDisplay:10.37,2013-08-07 20:04:00,
2013-08-07 16:09:00,72.8,64.0,30.13,ESE,116,15.0,15.0,74,0.00,BKN,,0.00,WeatherDisplay:10.37,2013-08-07 20:09:00,
2013-08-07 16:15:00,72.8,64.0,30.13,ESE,114,15.0,15.0,74,0.00,BKN,,0.00,WeatherDisplay:10.37,2013-08-07 20:15:00,
2013-08-07 16:20:00,72.8,64.0,30.13,ESE,109,15.0,15.0,74,0.00,BKN,,0.00,WeatherDisplay:10.37,2013-08-07 20:20:00,
2013-08-07 16:25:00,72.7,64.3,30.13,ESE,117,15.0,15.0,75,0.00,BKN,,0.00,WeatherDisplay:10.37,2013-08-07 20:25:00,
2013-08-07 16:30:00,72.6,63.9,30.13,ESE,123,13.0,20.0,74,0.00,BKN,,0.00,WeatherDisplay:10.37,2013-08-07 20:30:00,
2013-08-07 16:35:00,72.7,63.9,30.13,ESE,107,19.6,19.6,74,0.00,BKN,,0.00,WeatherDisplay:10.37,2013-08-07 20:35:00,
2013-08-07 16:40:00,72.7,64.3,30.13,SE,128,13.8,13.8,75,0.00,BKN,,0.00,WeatherDisplay:10.37,2013-08-07 20:40:00,
2013-08-07 16:45:00,72.7,63.5,30.13,ESE,122,16.1,16.1,73,0.00,BKN,,0.00,WeatherDisplay:10.37,2013-08-07 20:45:00,
2013-08-07 16:50:00,72.7,63.9,30.13,SE,134,15.0,15.0,74,0.00,BKN,,0.00,WeatherDisplay:10.37,2013-08-07 20:50:00,
2013-08-07 16:55:00,72.8,64.0,30.13,ESE,109,13.8,13.8,74,0.00,BKN,,0.00,WeatherDisplay:10.37,2013-08-07 20:55:00,
2013-08-07 17:00:00,73.0,64.6,30.13,SE,131,11.5,11.5,75,0.00,BKN,,0.00,WeatherDisplay:10.37,2013-08-07 21:00:00,
2013-08-07 17:05:00,73.0,65.0,30.13,SSE,148,13.8,13.8,76,0.00,BKN,,0.00,WeatherDisplay:10.37,2013-08-07 21:05:00,
2013-08-07 17:11:00,72.6,64.6,30.13,SE,141,13.0,13.0,76,0.00,BKN,,0.00,WeatherDisplay:10.37,2013-08-07 21:11:00,
2013-08-07 17:16:00,72.5,64.9,30.13,SE,142,17.3,17.3,77,0.00,BKN,,0.00,WeatherDisplay:10.37,2013-08-07 21:16:00,
2013-08-07 17:21:00,72.3,64.3,30.13,ESE,121,15.0,15.0,76,0.00,BKN,,0.00,WeatherDisplay:10.37,2013-08-07 21:21:00,
2013-08-07 17:26:00,72.2,64.6,30.12,ESE,116,13.8,13.8,77,0.00,BKN,,0.00,WeatherDisplay:10.37,2013-08-07 21:26:00,
2013-08-07 17:31:00,72.2,65.3,30.12,ESE,106,12.7,12.7,79,0.00,BKN,,0.00,WeatherDisplay:10.37,2013-08-07 21:31:00,
2013-08-07 17:37:00,72.1,65.2,30.12,ESE,114,12.0,12.0,79,0.00,BKN,,0.00,WeatherDisplay:10.37,2013-08-07 21:37:00,
2013-08-07 17:42:00,72.1,65.6,30.12,SE,128,14.0,14.0,80,0.00,BKN,,0.00,WeatherDisplay:10.37,2013-08-07 21:42:00,
2013-08-07 17:47:00,72.0,65.8,30.12,SE,131,15.0,15.0,81,0.00,BKN,,0.00,WeatherDisplay:10.37,2013-08-07 21:47:00,
2013-08-07 17:52:00,71.9,65.4,30.12,ESE,113,14.0,14.0,80,0.00,BKN,,0.00,WeatherDisplay:10.37,2013-08-07 21:52:00,
2013-08-07 17:57:00,71.8,64.9,30.11,SE,125,16.1,16.1,79,0.00,BKN,,0.00,WeatherDisplay:10.37,2013-08-07 21:57:00,
2013-08-07 18:02:00,71.7,64.8,30.12,SE,125,16.1,16.1,79,0.00,OVC,,0.00,WeatherDisplay:10.37,2013-08-07 22:02:00,
2013-08-07 18:07:00,71.7,64.8,30.12,SE,132,15.0,15.0,79,0.00,OVC,,0.00,WeatherDisplay:10.37,2013-08-07 22:07:00,
2013-08-07 18:13:00,71.6,64.7,30.12,ESE,119,15.0,15.0,79,0.00,OVC,,0.00,WeatherDisplay:10.37,2013-08-07 22:13:00,
2013-08-07 18:18:00,71.6,65.1,30.12,ESE,115,16.1,16.1,80,0.00,OVC,,0.00,WeatherDisplay:10.37,2013-08-07 22:18:00,
2013-08-07 18:23:00,71.7,65.6,30.11,SE,128,12.0,12.0,81,0.00,OVC,,0.00,WeatherDisplay:10.37,2013-08-07 22:23:00,
2013-08-07 18:28:00,71.7,65.6,30.11,ESE,115,13.0,13.0,81,0.00,OVC,,0.00,WeatherDisplay:10.37,2013-08-07 22:28:00,
2013-08-07 18:33:00,71.7,65.6,30.11,ESE,121,12.0,12.0,81,0.00,OVC,,0.00,WeatherDisplay:10.37,2013-08-07 22:33:00,
2013-08-07 18:38:00,71.5,65.4,30.11,ESE,119,15.0,15.0,81,0.00,OVC,,0.00,WeatherDisplay:10.37,2013-08-07 22:38:00,
2013-08-07 18:43:00,71.4,65.6,30.11,ESE,115,16.0,16.0,82,0.00,OVC,,0.00,WeatherDisplay:10.37,2013-08-07 22:43:00,
2013-08-07 18:48:00,71.3,65.5,30.11,ESE,123,15.0,15.0,82,0.00,OVC,,0.00,WeatherDisplay:10.37,2013-08-07 22:48:00,
2013-08-07 18:53:00,71.3,65.5,30.12,SE,126,11.5,11.5,82,0.00,OVC,,0.00,WeatherDisplay:10.37,2013-08-07 22:53:00,
2013-08-07 18:59:00,71.2,65.4,30.11,SE,132,16.1,16.1,82,0.00,OVC,,0.00,WeatherDisplay:10.37,2013-08-07 22:59:00,
2013-08-07 19:04:00,71.1,65.7,30.11,SE,144,11.5,11.5,83,0.00,OVC,,0.00,WeatherDisplay:10.37,2013-08-07 23:04:00,
2013-08-07 19:09:00,71.1,65.3,30.11,SE,137,11.5,11.5,82,0.00,OVC,,0.00,WeatherDisplay:10.37,2013-08-07 23:09:00,
2013-08-07 19:14:00,71.0,65.2,30.11,ESE,116,13.8,13.8,82,0.00,OVC,,0.00,WeatherDisplay:10.37,2013-08-07 23:14:00,
2013-08-07 19:19:00,71.0,65.6,30.11,East,101,14.0,14.0,83,0.00,OVC,,0.00,WeatherDisplay:10.37,2013-08-07 23:19:00,
2013-08-07 19:24:00,71.0,65.6,30.11,ESE,120,11.5,11.5,83,0.00,OVC,,0.00,WeatherDisplay:10.37,2013-08-07 23:24:00,
2013-08-07 19:30:00,70.8,65.4,30.11,SE,129,11.5,11.5,83,0.00,OVC,,0.00,WeatherDisplay:10.37,2013-08-07 23:30:00,
2013-08-07 19:35:00,70.9,65.8,30.12,ESE,120,9.2,9.2,84,0.00,OVC,,0.00,WeatherDisplay:10.37,2013-08-07 23:35:00,
2013-08-07 19:40:00,70.9,65.8,30.12,SE,134,11.5,11.5,84,0.00,OVC,,0.00,WeatherDisplay:10.37,2013-08-07 23:40:00,
2013-08-07 19:45:00,70.8,65.7,30.11,SE,125,11.5,11.5,84,0.00,OVC,,0.00,WeatherDisplay:10.37,2013-08-07 23:45:00,
2013-08-07 19:51:00,70.8,65.7,30.11,ESE,119,9.2,9.2,84,0.00,OVC,,0.00,WeatherDisplay:10.37,2013-08-07 23:51:00,
2013-08-07 19:56:00,70.7,65.3,30.11,ESE,115,11.5,11.5,83,0.00,OVC,,0.00,WeatherDisplay:10.37,2013-08-07 23:56:00,
2013-08-07 20:01:00,70.7,65.6,30.11,ESE,120,11.5,11.5,84,0.00,OVC,,0.00,WeatherDisplay:10.37,2013-08-08 00:01:00,
2013-08-07 20:06:00,70.7,65.6,30.11,SE,126,11.5,11.5,84,0.00,OVC,,0.00,WeatherDisplay:10.37,2013-08-08 00:06:00,
2013-08-07 20:12:00,70.7,65.6,30.11,ESE,123,11.5,11.5,84,0.00,OVC,,0.00,WeatherDisplay:10.37,2013-08-08 00:12:00,
2013-08-07 20:17:00,70.7,65.6,30.11,SE,128,8.1,8.1,84,0.00,OVC,,0.00,WeatherDisplay:10.37,2013-08-08 00:17:00,
2013-08-07 20:22:00,70.7,65.6,30.11,SE,134,11.5,11.5,84,0.00,OVC,,0.00,WeatherDisplay:10.37,2013-08-08 00:22:00,
2013-08-07 20:27:00,70.7,65.6,30.11,SE,130,8.1,8.1,84,0.00,OVC,,0.00,WeatherDisplay:10.37,2013-08-08 00:27:00,
2013-08-07 20:32:00,70.6,65.5,30.11,SE,133,9.2,9.2,84,0.00,OVC,,0.00,WeatherDisplay:10.37,2013-08-08 00:32:00,
2013-08-07 20:37:00,70.6,65.2,30.11,ESE,123,11.5,11.5,83,0.00,OVC,,0.00,WeatherDisplay:10.37,2013-08-08 00:37:00,
2013-08-07 20:43:00,70.6,65.5,30.11,SE,137,9.2,9.2,84,0.00,OVC,,0.00,WeatherDisplay:10.37,2013-08-08 00:43:00,
2013-08-07 20:48:00,70.6,65.5,30.11,SE,131,9.2,9.2,84,0.00,OVC,,0.00,WeatherDisplay:10.37,2013-08-08 00:48:00,
2013-08-07 20:53:00,70.6,65.5,30.10,SE,127,8.1,8.1,84,0.00,OVC,,0.00,WeatherDisplay:10.37,2013-08-08 00:53:00,
2013-08-07 20:58:00,70.6,65.9,30.10,ESE,123,11.5,11.5,85,0.00,OVC,,0.00,WeatherDisplay:10.37,2013-08-08 00:58:00,
2013-08-07 21:03:00,70.6,65.5,30.11,SE,137,10.4,10.4,84,0.00,OVC,,0.00,WeatherDisplay:10.37,2013-08-08 01:03:00,
2013-08-07 21:09:00,70.6,65.9,30.11,SE,138,6.9,6.9,85,0.00,OVC,,0.00,WeatherDisplay:10.37,2013-08-08 01:09:00,
2013-08-07 21:14:00,70.6,65.9,30.11,SE,138,5.0,5.0,85,0.00,OVC,,0.00,WeatherDisplay:10.37,2013-08-08 01:14:00,
2013-08-07 21:19:00,70.6,66.2,30.11,SE,138,6.0,6.0,86,0.00,OVC,,0.00,WeatherDisplay:10.37,2013-08-08 01:19:00,
2013-08-07 21:24:00,70.6,66.2,30.11,SE,138,6.0,6.0,86,0.00,OVC,,0.00,WeatherDisplay:10.37,2013-08-08 01:24:00,
2013-08-07 21:29:00,70.7,66.3,30.11,SE,134,8.1,8.1,86,0.00,OVC,,0.00,WeatherDisplay:10.37,2013-08-08 01:29:00,
2013-08-07 21:34:00,70.8,66.4,30.11,SE,142,9.2,9.2,86,0.00,OVC,,0.00,WeatherDisplay:10.37,2013-08-08 01:34:00,
2013-08-07 21:40:00,70.9,66.5,30.11,SE,143,8.1,8.1,86,0.00,OVC,,0.00,WeatherDisplay:10.37,2013-08-08 01:40:00,
2013-08-07 21:45:00,70.9,66.2,30.10,SE,136,8.0,12.0,85,0.00,OVC,,0.00,WeatherDisplay:10.37,2013-08-08 01:45:00,
2013-08-07 21:50:00,71.0,66.3,30.10,SE,140,9.2,9.2,85,0.00,OVC,,0.00,WeatherDisplay:10.37,2013-08-08 01:50:00,
2013-08-07 21:55:00,71.1,66.4,30.11,SE,137,8.1,8.1,85,0.00,OVC,,0.00,WeatherDisplay:10.37,2013-08-08 01:55:00,
2013-08-07 22:00:00,71.1,66.0,30.11,SSE,152,9.2,9.2,84,0.00,OVC,,0.00,WeatherDisplay:10.37,2013-08-08 02:00:00,
2013-08-07 22:05:00,71.2,66.5,30.11,SSE,157,8.1,8.1,85,0.00,OVC,,0.00,WeatherDisplay:10.37,2013-08-08 02:05:00,
2013-08-07 22:11:00,71.2,66.1,30.11,SSE,150,8.1,8.1,84,0.00,OVC,,0.00,WeatherDisplay:10.37,2013-08-08 02:11:00,
2013-08-07 22:16:00,71.2,66.1,30.11,SE,141,9.2,9.2,84,0.00,OVC,,0.00,WeatherDisplay:10.37,2013-08-08 02:16:00,
2013-08-07 22:21:00,71.1,66.0,30.11,SE,135,7.0,7.0,84,0.00,OVC,,0.00,WeatherDisplay:10.37,2013-08-08 02:21:00,
2013-08-07 22:26:00,71.2,66.1,30.11,SE,145,9.2,9.2,84,0.00,OVC,,0.00,WeatherDisplay:10.37,2013-08-08 02:26:00,
2013-08-07 22:31:00,71.2,66.1,30.11,SE,137,11.5,11.5,84,0.00,OVC,,0.00,WeatherDisplay:10.37,2013-08-08 02:31:00,
2013-08-07 22:36:00,71.3,66.6,30.11,SSE,152,10.4,10.4,85,0.00,OVC,,0.00,WeatherDisplay:10.37,2013-08-08 02:36:00,
2013-08-07 22:41:00,71.3,66.6,30.11,SE,142,9.2,9.2,85,0.00,OVC,,0.00,WeatherDisplay:10.37,2013-08-08 02:41:00,
2013-08-07 22:46:00,71.2,66.5,30.11,SE,140,10.4,10.4,85,0.00,OVC,,0.00,WeatherDisplay:10.37,2013-08-08 02:46:00,
2013-08-07 22:51:00,71.3,66.6,30.11,SE,138,8.1,8.1,85,0.00,OVC,,0.00,WeatherDisplay:10.37,2013-08-08 02:51:00,
2013-08-07 22:56:00,71.3,66.6,30.11,SE,144,9.2,9.2,85,0.00,OVC,,0.00,WeatherDisplay:10.37,2013-08-08 02:56:00,
2013-08-07 23:01:00,71.3,66.6,30.11,SE,135,11.5,11.5,85,0.00,OVC,,0.00,WeatherDisplay:10.37,2013-08-08 03:01:00,
2013-08-07 23:07:00,71.3,66.2,30.11,SE,137,9.2,9.2,84,0.00,OVC,,0.00,WeatherDisplay:10.37,2013-08-08 03:07:00,
2013-08-07 23:12:00,71.3,66.6,30.11,SE,142,9.2,9.2,85,0.00,OVC,,0.00,WeatherDisplay:10.37,2013-08-08 03:12:00,
2013-08-07 23:17:00,71.3,66.6,30.10,SSE,150,8.1,8.1,85,0.00,OVC,,0.00,WeatherDisplay:10.37,2013-08-08 03:17:00,
2013-08-07 23:22:00,71.3,66.6,30.11,SE,146,9.2,9.2,85,0.00,OVC,,0.00,WeatherDisplay:10.37,2013-08-08 03:22:00,
2013-08-07 23:27:00,71.3,66.2,30.11,SE,142,9.2,9.2,84,0.00,OVC,,0.00,WeatherDisplay:10.37,2013-08-08 03:27:00,
2013-08-07 23:33:00,71.4,66.7,30.11,SSE,149,10.4,10.4,85,0.00,OVC,,0.00,WeatherDisplay:10.37,2013-08-08 03:33:00,
2013-08-07 23:38:00,71.4,66.3,30.11,SSE,153,6.9,6.9,84,0.00,OVC,,0.00,WeatherDisplay:10.37,2013-08-08 03:38:00,
2013-08-07 23:43:00,71.4,66.7,30.11,SE,146,10.4,10.4,85,0.00,OVC,,0.00,WeatherDisplay:10.37,2013-08-08 03:43:00,
2013-08-07 23:48:00,71.5,66.8,30.10,SSE,158,9.2,9.2,85,0.00,OVC,,0.00,WeatherDisplay:10.37,2013-08-08 03:48:00,
2013-08-07 23:53:00,71.5,66.8,30.11,SSW,197,11.5,11.5,85,0.00,OVC,,0.00,WeatherDisplay:10.37,2013-08-08 03:53:00,
2013-08-07 23:58:00,71.5,66.4,30.10,SSE,165,9.2,9.2,84,0.00,OVC,,0.00,WeatherDisplay:10.37,2013-08-08 03:58:00,